[[{"header":{"parameterUnit":"m.s-1","parameterCategory":1,"la1":30.2991,"la2":30.254,"lo1":-89.0895,"lo2":-89.0444,"dy":0.0017,"dx":0.0017,"nx":28,"ny":28,"refTime":"2024-06-24T09:00:00:Z","depth":0,"parameterNumber":2,"parameterNumberName":"U-component_of_WINDS"},"data":[0,0,0,0,0,0,0,0,0,0,0,0,0,0,0,0,0,0,0,0,0,0,0,0,0,0,0,0,0,0,0,0,0,0,0,0,0,0,0,0,0,0,0,0,0,0,0,0,0,0,0,0,0,0,0,0,0,0,-0.6118,-0.6116,0,-0.5985,-0.5983,-0.5982,-0.5941,-0.5941,-0.5942,-0.5943,-0.5803,-0.5799,-0.5795,0,0,0,0,0,0,0,0,0,0,0,0,0,-0.6335,-0.6331,-0.6118,-0.6116,-0.6115,-0.5985,-0.5983,-0.5981,-0.594,-0.5941,-0.5942,-0.5943,-0.5805,-0.5799,-0.5794,0,0,0,0,0,0,0,0,0,0,0,0,0,-0.6225,-0.633,-0.6118,-0.6079,-0.6074,-0.5985,-0.5983,-0.5981,-0.594,-0.5941,-0.5942,-0.5943,-0.5806,-0.58,-0.5794,-0.5734,0,0,-0.5774,-0.5771,0,0,0,0,0,0,0,0,-0.6232,-0.6217,-0.6086,-0.6081,-0.6076,-0.598,-0.6009,-0.5898,-0.594,-0.5991,-0.5943,-0.5944,-0.5861,-0.585,-0.5823,-0.5727,-0.5721,-0.5773,-0.5769,-0.5766,-0.5765,0,0,0,0,0,0,0,-0.6239,-0.6223,-0.6065,-0.6084,-0.6078,-0.6067,-0.6053,-0.5987,-0.5922,-0.5987,-0.5983,-0.5968,-0.5858,-0.5829,-0.5819,-0.5719,-0.5773,-0.5768,-0.5764,-0.5761,-0.5568,-0.5567,0,0,0,0,0,0,-0.6254,-0.623,-0.6069,-0.6061,-0.6158,-0.6062,-0.6046,-0.601,-0.5923,-0.591,-0.5968,-0.5967,-0.584,-0.5827,-0.5814,-0.5738,-0.5766,-0.576,-0.5757,-0.557,-0.5568,-0.5567,0,0,0,0,0,0,-0.6259,-0.624,-0.6075,-0.6144,-0.6123,-0.6058,-0.6017,-0.6007,-0.5978,-0.5908,-0.5896,-0.595,-0.584,-0.5823,-0.5754,-0.5733,-0.5757,-0.5752,-0.5571,-0.5569,-0.5568,-0.5587,0,0,0,0,0,0,-0.6265,-0.6242,-0.6219,-0.6144,-0.6119,-0.6018,-0.6016,-0.6003,-0.5967,-0.5965,-0.5889,-0.5877,-0.584,-0.5764,-0.5748,-0.5725,-0.5746,-0.5573,-0.557,-0.5568,-0.5587,-0.5586,-0.5584,0,0,0,0,0,-0.6273,-0.6229,-0.6218,-0.6199,-0.6089,-0.6017,-0.6002,-0.5961,-0.5965,-0.5941,-0.5897,-0.5879,-0.5739,-0.5758,-0.5739,-0.5713,-0.5574,-0.5571,-0.5568,-0.5588,-0.5586,-0.5584,0,0,0,0,0,0,-0.6301,-0.6218,-0.6205,-0.6135,-0.6084,-0.601,-0.5978,-0.596,-0.5904,-0.5905,-0.5855,-0.5838,-0.5773,-0.5736,-0.5759,-0.5651,-0.5655,-0.5649,-0.5677,-0.5674,-0.5673,-0.5682,-0.5741,0,0,0,0,0,-0.63,-0.6248,-0.6178,-0.6124,-0.6098,-0.6043,-0.601,-0.5983,-0.5927,-0.5904,-0.5855,-0.58,-0.5744,-0.5707,-0.5651,-0.5583,-0.5565,-0.5556,-0.5554,-0.5553,-0.5547,-0.5508,-0.5503,-0.5558,-0.5558,-0.5558,0,0,-0.6295,-0.6243,-0.6214,-0.6128,-0.6085,-0.6032,-0.6025,-0.5969,-0.593,-0.5895,-0.5827,-0.579,-0.5725,-0.5657,-0.5624,-0.5624,-0.5529,-0.555,-0.5549,-0.5544,-0.5505,-0.55,-0.5496,-0.5556,-0.5556,-0.5557,0,0,-0.6259,-0.6216,-0.6165,-0.6122,-0.6057,-0.6021,-0.601,-0.5939,-0.5913,-0.5844,-0.5818,-0.577,-0.5673,-0.5629,-0.5594,-0.5544,-0.5525,-0.5527,-0.5517,-0.548,-0.5476,-0.5471,-0.5453,-0.5447,-0.5522,-0.5522,-0.5522,0,-0.6261,-0.6182,-0.6141,-0.6088,-0.6051,-0.602,-0.5968,-0.5928,-0.5848,-0.5823,-0.5825,-0.5704,-0.5659,-0.5579,-0.5567,-0.554,-0.5524,-0.5535,-0.548,-0.5475,-0.5471,-0.5452,-0.5446,-0.5523,-0.5523,-0.5523,-0.5523,0,-0.6187,-0.6133,-0.61,-0.6025,-0.5984,-0.5932,-0.5883,-0.5847,-0.5825,-0.5789,-0.5719,-0.5664,-0.5597,-0.5577,-0.5553,-0.5494,-0.5496,-0.549,-0.5492,-0.5467,-0.5449,-0.5442,-0.5524,-0.5523,-0.5523,-0.5523,0,0,-0.6163,-0.6068,-0.6056,-0.6022,-0.5949,-0.5906,-0.5853,-0.5788,-0.5758,-0.5704,-0.5658,-0.5578,-0.5573,-0.5533,-0.5505,-0.5472,-0.5436,-0.547,-0.5467,-0.5464,-0.5366,-0.537,-0.5363,-0.5424,-0.5423,-0.5422,-0.5371,0,-0.6117,-0.6021,-0.5984,-0.5905,-0.5854,-0.5825,-0.5779,-0.5729,-0.5694,-0.5646,-0.5607,-0.5551,-0.5548,-0.5524,-0.5491,-0.5447,-0.5415,-0.5451,-0.5379,-0.5377,-0.5394,-0.5354,-0.5357,-0.5312,-0.5364,-0.5363,-0.5362,0,-0.605,-0.5997,-0.5914,-0.5848,-0.5826,-0.5785,-0.5723,-0.5677,-0.562,-0.5597,-0.5554,-0.5529,-0.5471,-0.548,-0.54,-0.5425,-0.5394,-0.5369,-0.5366,-0.5356,-0.5367,-0.5341,-0.5297,-0.529,-0.5351,-0.5352,-0.5352,0,-0.604,-0.5948,-0.5886,-0.5858,-0.578,-0.5752,-0.5718,-0.5662,-0.5626,-0.5573,-0.5549,-0.5489,-0.5456,-0.541,-0.5369,-0.5379,-0.5292,-0.5298,-0.5271,-0.5272,-0.5252,-0.5253,-0.5201,-0.5235,-0.5235,-0.5235,-0.5235,0,-0.5991,-0.5941,-0.5881,-0.5842,-0.5785,-0.5744,-0.5689,-0.5653,-0.5604,-0.5558,-0.553,-0.5487,-0.5436,-0.5387,-0.5355,-0.5293,-0.5279,-0.5258,-0.5249,-0.5259,-0.5262,-0.5237,-0.5238,-0.5233,-0.5234,-0.5234,-0.5234,0,-0.5969,-0.5926,-0.5857,-0.579,-0.5772,-0.5733,-0.5675,-0.5637,-0.5602,-0.5544,-0.5529,-0.5473,-0.5414,-0.5369,-0.5292,-0.5271,-0.5205,-0.5197,-0.5224,-0.522,-0.5195,-0.5197,-0.5123,-0.511,-0.5155,-0.5154,-0.5154,0,-0.594,-0.5901,-0.583,-0.5798,-0.5765,-0.5713,-0.5677,-0.5635,-0.5598,-0.5532,-0.5502,-0.5441,-0.539,-0.5297,-0.5249,-0.519,-0.5179,-0.5158,-0.517,-0.5182,-0.5178,-0.518,-0.5175,-0.5155,-0.5155,-0.5155,-0.5154,0,-0.5893,-0.5874,-0.5823,-0.5765,-0.5723,-0.5675,-0.5627,-0.5602,-0.5552,-0.5512,-0.5452,-0.5412,-0.5335,-0.5275,-0.5211,-0.5176,-0.5156,-0.5152,-0.5142,-0.515,-0.5168,-0.5157,-0.5218,-0.5153,-0.5153,-0.5153,-0.5153,-0.5153,-0.5865,-0.5829,-0.5774,-0.5718,-0.5678,-0.5634,-0.5595,-0.5556,-0.5506,-0.544,-0.5419,-0.5357,-0.5302,-0.5215,-0.5179,-0.513,-0.5129,-0.5116,-0.5112,-0.5109,-0.5109,-0.5178,-0.5118,-0.5118,-0.5118,-0.5118,-0.5118,0,-0.5815,-0.5779,-0.5729,-0.5662,-0.5619,-0.5607,-0.5553,-0.5517,-0.5463,-0.5414,-0.5366,-0.5297,-0.5239,-0.5188,-0.5128,-0.5098,-0.5087,-0.5083,-0.5084,-0.5076,-0.5113,-0.5127,-0.5093,-0.5093,-0.5093,-0.5093,-0.5093,-0.5093,-0.5784,-0.5723,-0.5698,-0.5617,-0.5581,-0.552,-0.5491,-0.545,-0.5411,-0.5336,-0.5288,-0.5256,-0.5206,-0.5142,-0.5088,-0.5075,-0.5053,-0.5051,-0.5035,-0.507,-0.5073,-0.5076,-0.5089,-0.5047,-0.5047,-0.5002,-0.5001,-0.5001]},{"header":{"parameterUnit":"m.s-1","parameterCategory":1,"la1":30.2991,"la2":30.254,"lo1":-89.0895,"lo2":-89.0444,"dy":0.0017,"dx":0.0017,"nx":28,"ny":28,"refTime":"2024-06-24T09:00:00:Z","depth":0,"parameterNumber":3,"parameterNumberName":"V-component_of_WINDS"},"data":[0,0,0,0,0,0,0,0,0,0,0,0,0,0,0,0,0,0,0,0,0,0,0,0,0,0,0,0,0,0,0,0,0,0,0,0,0,0,0,0,0,0,0,0,0,0,0,0,0,0,0,0,0,0,0,0,0,0,4.6309,4.6309,0,4.6326,4.6326,4.6326,4.6239,4.6237,4.6234,4.6232,4.6249,4.6252,4.6254,0,0,0,0,0,0,0,0,0,0,0,0,0,4.62,4.6203,4.6309,4.6309,4.631,4.6326,4.6326,4.6326,4.624,4.6237,4.6234,4.6231,4.6248,4.6251,4.6255,0,0,0,0,0,0,0,0,0,0,0,0,0,4.6235,4.6203,4.6309,4.6268,4.6265,4.6326,4.6326,4.6326,4.624,4.6237,4.6233,4.6229,4.6247,4.6251,4.6255,4.6356,0,0,4.6268,4.627,0,0,0,0,0,0,0,0,4.6233,4.6239,4.6274,4.6271,4.6268,4.6277,4.6294,4.6336,4.6241,4.625,4.6232,4.6228,4.6261,4.6264,4.6275,4.6357,4.6357,4.6268,4.6271,4.6273,4.6274,0,0,0,0,0,0,0,4.6231,4.6238,4.6316,4.6275,4.6271,4.6248,4.6249,4.6301,4.6276,4.6249,4.6243,4.6246,4.6259,4.6272,4.6275,4.6358,4.6268,4.6272,4.6274,4.6276,4.6519,4.6523,0,0,0,0,0,0,4.6234,4.6237,4.6315,4.6316,4.6241,4.6253,4.6254,4.6278,4.6275,4.6272,4.6249,4.6242,4.6266,4.627,4.6275,4.6392,4.6273,4.6276,4.6279,4.6515,4.652,4.6525,0,0,0,0,0,0,4.6232,4.6242,4.6314,4.6275,4.6282,4.6259,4.6286,4.628,4.6293,4.6276,4.627,4.6267,4.6263,4.6269,4.6336,4.6391,4.6278,4.6282,4.6511,4.6517,4.6522,4.6627,0,0,0,0,0,0,4.6229,4.6242,4.6281,4.6276,4.6285,4.6376,4.6289,4.6283,4.63,4.6291,4.6291,4.6287,4.6261,4.633,4.634,4.6395,4.6285,4.6506,4.6513,4.6521,4.6618,4.6635,4.665,0,0,0,0,0,4.6226,4.631,4.6283,4.6293,4.6333,4.6379,4.6384,4.6352,4.6305,4.6343,4.6332,4.6287,4.6383,4.6338,4.6348,4.6405,4.6502,4.6511,4.652,4.6611,4.6632,4.665,0,0,0,0,0,0,4.6323,4.6309,4.6279,4.6365,4.6374,4.6365,4.6412,4.6376,4.6399,4.6389,4.6348,4.6348,4.6421,4.6419,4.6369,4.6501,4.6434,4.6446,4.65,4.652,4.6535,4.6535,4.6289,0,0,0,0,0,4.6354,4.6393,4.6379,4.6455,4.6461,4.6436,4.6455,4.6429,4.6437,4.6441,4.6434,4.6443,4.6475,4.6497,4.6525,4.6617,4.6615,4.6661,4.6677,4.669,4.6701,4.6747,4.6767,4.6554,4.6554,4.6554,0,0,4.642,4.6416,4.6444,4.6475,4.6479,4.6519,4.644,4.6487,4.6517,4.6448,4.651,4.6505,4.6512,4.6591,4.6625,4.6592,4.6758,4.6701,4.6712,4.6715,4.6758,4.6778,4.6796,4.656,4.6559,4.6558,0,0,4.6559,4.6561,4.6624,4.6629,4.6636,4.6618,4.6633,4.6629,4.6623,4.6684,4.6633,4.6666,4.6723,4.6729,4.674,4.6878,4.6838,4.6889,4.6973,4.7018,4.7035,4.705,4.7098,4.7117,4.6899,4.6899,4.6899,0,4.664,4.67,4.6662,4.6711,4.6726,4.6663,4.6726,4.6733,4.6749,4.676,4.6721,4.6789,4.6789,4.6868,4.6901,4.6912,4.6927,4.6889,4.7036,4.705,4.7063,4.7109,4.7128,4.6905,4.6905,4.6904,4.6904,0,4.6797,4.6839,4.6889,4.6905,4.6924,4.6981,4.695,4.6974,4.6945,4.6931,4.6993,4.6991,4.7017,4.7034,4.7007,4.7108,4.7087,4.7043,4.6975,4.709,4.7133,4.715,4.6914,4.6912,4.691,4.6909,0,0,4.7003,4.6993,4.7013,4.7018,4.7018,4.705,4.7101,4.7126,4.7147,4.7159,4.7201,4.7249,4.7207,4.7219,4.7192,4.7232,4.734,4.7183,4.7182,4.7212,4.745,4.7484,4.7505,4.7313,4.7316,4.7319,4.745,0,4.7139,4.7228,4.7193,4.7285,4.7321,4.7261,4.7306,4.7311,4.7298,4.7327,4.7312,4.7346,4.7289,4.7296,4.7333,4.732,4.7388,4.7309,4.7351,4.7353,4.7352,4.7527,4.7563,4.7687,4.7466,4.7469,4.7471,0,4.7311,4.7328,4.7423,4.7414,4.7428,4.747,4.7488,4.7516,4.752,4.7507,4.7519,4.7482,4.7532,4.7463,4.753,4.7478,4.7492,4.7488,4.7492,4.7495,4.742,4.7536,4.7726,4.7745,4.7497,4.7495,4.7493,0,4.7451,4.7497,4.7559,4.7565,4.7557,4.7587,4.7585,4.7584,4.76,4.7616,4.7626,4.7647,4.766,4.7677,4.7646,4.7599,4.7717,4.7646,4.7708,4.7709,4.7736,4.7735,4.7933,4.7745,4.7745,4.7745,4.7744,0,4.7607,4.7668,4.7621,4.766,4.7725,4.7683,4.7748,4.7739,4.7739,4.7773,4.7722,4.7756,4.7713,4.7742,4.7718,4.7777,4.7783,4.7774,4.7767,4.7779,4.778,4.7789,4.7779,4.775,4.7749,4.7748,4.7747,0,4.7776,4.7747,4.781,4.7796,4.7793,4.7842,4.7829,4.7863,4.7845,4.789,4.7898,4.787,4.7901,4.7872,4.7902,4.7886,4.7964,4.7944,4.7963,4.7958,4.8021,4.8015,4.8231,4.8257,4.8053,4.8055,4.8057,0,4.7878,4.7922,4.7912,4.793,4.7931,4.7963,4.7978,4.7938,4.7956,4.7961,4.7994,4.8021,4.804,4.8093,4.8076,4.8098,4.8079,4.8153,4.8082,4.8092,4.808,4.8078,4.8082,4.8168,4.817,4.8172,4.8174,0,4.8063,4.8045,4.8069,4.8087,4.8106,4.8119,4.8127,4.8146,4.8104,4.8126,4.8157,4.8172,4.8201,4.8229,4.8245,4.8242,4.8202,4.8196,4.8211,4.8224,4.8233,4.8229,4.8002,4.8191,4.819,4.8188,4.8187,4.8187,4.8201,4.8237,4.8234,4.8261,4.8262,4.8271,4.8301,4.8286,4.831,4.8331,4.8305,4.8343,4.8342,4.8359,4.8361,4.8389,4.8358,4.8381,4.8387,4.8393,4.8402,4.8228,4.8392,4.8392,4.8391,4.8391,4.839,0,4.8383,4.8377,4.8402,4.8414,4.8435,4.8392,4.8398,4.8419,4.8452,4.8455,4.8474,4.8508,4.8533,4.8516,4.8537,4.8563,4.8545,4.857,4.8568,4.8568,4.8429,4.8413,4.8585,4.8585,4.8585,4.8584,4.8584,4.8584,4.848,4.8537,4.8519,4.8576,4.8569,4.8604,4.8611,4.8618,4.8619,4.8659,4.8679,4.8667,4.8662,4.8681,4.8702,4.8696,4.8706,4.8739,4.8727,4.8597,4.8578,4.856,4.8545,4.8741,4.8741,4.8863,4.8864,4.8865]}]]